This demonstration page uses our WeatherBlox Daily Observations layout. Learn more.

Left ArrowRight Arrow

41.86663, -103.66717

Hourly Observations for June 21, 2021

Temp ( °F °C ) Dew Point ( °F °C ) Humidity (%) Winds ( mph kmh ) Pressure ( in mb ) Visibility ( mi km ) Precip ( " mm )
12:53 am 00:53 Cloudy with Light Rain 56 13.3 53 11.7 90 90 W 6 9 30.06 1018 6 10 0.06 1.52
1:53 am 01:53 Cloudy 56 13.3 53 11.7 90 90 WSW 5 7 30.05 1018 10 16 0.01 0.25
2:53 am 02:53 Mostly Cloudy 56 13.3 52 11.1 87 87 SSW 3 6 30.04 1017 10 16 N/A
3:53 am 03:53 Mostly Clear 55 12.8 53 11.7 93 93 WNW 6 9 30.05 1018 9 14 N/A
4:53 am 04:53 Clear 54 12.2 51 10.6 90 90 W 6 9 30.09 1019 7 11 N/A
5:53 am 05:53 Mostly Cloudy with Mist and Fog 54 12.2 51 10.6 90 90 W 6 9 30.09 1019 6 10 N/A
6:53 am 06:53 Mostly Sunny 56 13.3 51 10.6 84 84 WNW 5 7 30.11 1020 10 16 N/A
7:53 am 07:53 Sunny 59 15 53 11.7 81 81 NW 9 15 30.11 1020 10 16 N/A
8:53 am 08:53 Mostly Sunny 64 17.8 53 11.7 68 68 WNW 6 9 30.12 1020 10 16 N/A
9:53 am 09:53 Mostly Sunny 66 18.9 53 11.7 63 63 W 7 11 30.11 1020 10 16 N/A
10:53 am 10:53 Partly Cloudy 68 20 49 9.4 51 51 undefined N/A 30.11 1020 10 16 N/A
11:53 am 11:53 Mostly Sunny 72 22.2 46 7.8 40 40 NW 8 13 30.08 1019 10 16 N/A
12:53 pm 12:53 Sunny 73 22.8 45 7.2 37 37 VRB 6 9 30.06 1018 10 16 N/A
1:53 pm 13:53 Partly Cloudy 72 22.2 44 6.7 37 37 VRB 5 7 30.04 1017 10 16 N/A
2:53 pm 14:53 Mostly Sunny 76 24.4 44 6.7 32 32 VRB 5 7 30.02 1017 10 16 N/A
3:53 pm 15:53 Mostly Sunny 77 25 41 5 28 28 W 7 11 29.99 1016 10 16 N/A
4:53 pm 16:53 Sunny 77 25 40 4.4 26 26 N N/A 29.96 1015 10 16 N/A
5:53 pm 17:53 Sunny 78 25.6 39 3.9 25 25 NNW 5 7 29.93 1014 10 16 N/A
6:53 pm 18:53 Sunny 76 24.4 41 5 29 29 SSE 8 13 29.92 1013 10 16 N/A
7:53 pm 19:53 Sunny 74 23.3 44 6.7 34 34 S 7 11 29.91 1013 10 16 N/A
8:53 pm 20:53 Clear 70 21.1 45 7.2 41 41 S 7 11 29.91 1013 10 16 N/A
9:53 pm 21:53 Clear 66 18.9 46 7.8 49 49 SE 6 9 29.92 1013 10 16 N/A
10:53 pm 22:53 Clear 64 17.8 46 7.8 52 52 SSE 6 9 29.90 1013 10 16 N/A
11:53 pm 23:53 Clear 62 16.7 50 10 65 65 E 6 9 29.88 1012 10 16 N/A

Powered by AerisWeather